www.pogodaiklimat.ru

Погода и климат >> Архив погоды >> Россия >> Якутия >> Теплый Ключ


ПОГОДА в Теплом Ключе

  • Прогноз погоды в Теплом Ключе
  • Монитор погоды в Теплом Ключе

АРХИВ ПОГОДЫ в Теплом Ключе

Время (UTC), дата Ветер
(напр.,м/с)
 
Видим.   Явления Облачность Т
(С)
Тd
(С)
f
(%)
Тe
(С)
Тes
(С)
Комфортность P
(гПа)
Po
(гПа)
Тmin
(С)
Tmax
(С)
R
(мм)
R24
(мм)
S
(см)
18 17.08 штиль 0 н/о н/о +6.8 +6.0 95 +6 +6 1020.1 985.0
21 17.08 штиль 0 50 км 10/0 2000 м
[As trans]
+9.1 +7.0 87 +8 +9 1019.7 984.9 +6.3
00 18.08 В 1 н/о н/о +15.7 +10.4 71 +16 +16 1018.2 984.3
03 18.08 С 1 н/о н/о +22.5 +11.1 48 +25 +25 комфорт 1016.8 983.7
06 18.08 З 2 н/о н/о +23.2 +5.2 31 +23 +23 комфорт 1016.1 983.0
09 18.08 СЗ 2 н/о н/о +20.5 +8.2 45 +22 +22 комфорт 1016.0 982.6 +24.6
12 18.08 С 1 н/о н/о +13.2 +11.2 88 +13 +13 1017.4 983.2
15 18.08 В 2 н/о н/о +10.2 +9.0 92 +9 +9 1018.3 983.7
18 18.08 ЮВ 1 н/о н/о +6.7 +6.0 95 +6 +6 1019.3 984.2
21 18.08 В 1 50 км 9/0 2000 м
[Ac As]
+9.5 +7.4 87 +9 +9 1019.8 985.1 +6.5
00 19.08 З 4 50 км 8/0
[Ac As]
+18.2 +6.3 46 +18 +20 1019.9 986.1
03 19.08 штиль 0 50 км 6/0 2000 м
[Ac trans]
+19.6 +6.2 42 +20 +28 1019.4 985.9
06 19.08 З 2 50 км 10/0 2000 м
[As op]
+19.8 +6.8 43 +21 +22 комфорт 1019.1 985.6
09 19.08 штиль 0 50 км 9/0 2000 м
[Ac trans]
+17.8 +9.4 58 +18 +18 1020.3 986.5 +21.0
12 19.08 В 1 н/о н/о +10.6 +9.5 93 +10 +10 1021.2 986.5
15 19.08 ЮВ 1 н/о н/о +6.8 +6.1 95 +6 +6 1021.5 986.4
18 19.08 СВ 2 н/о н/о +5.2 +4.6 96 +2 +2 1021.6 986.2
21 19.08 штиль 0 50 км 9/0 2000 м
[Ac trans]
+9.8 +8.4 91 +9 +9 1020.3 985.6 +3.2
00 20.08 штиль 0 50 км 10/0 2000 м
[As op]
+13.7 +7.9 68 +13 +15 1019.5 985.3
03 20.08 штиль 0 50 км 10/0 2000 м
[As op]
+15.5 +10.0 70 +15 +18 1019.5 985.5
06 20.08 штиль 0 50 км 10/0 2000 м
[As op]
+16.3 +9.6 65 +16 +18 1019.7 985.8
09 20.08 штиль 0 50 км 10/0 2000 м
[As trans]
+16.4 +10.0 66 +16 +17 1020.1 986.2 +17.0
12 20.08 штиль 0 н/о н/о +12.7 +11.1 90 +12 +12 1020.9 986.5
15 20.08 З 1 н/о н/о +11.8 +10.8 94 +12 +12 1021.2 986.7
18 20.08 В 1 н/о н/о +9.9 +9.3 96 +9 +9 1021.7 986.9
21 20.08 штиль 0 50 км 8/0 2000 м
[Ac trans]
+9.5 +8.9 96 +9 +9 1021.8 987.0 +8.6
00 21.08 СЗ 1 50 км 6/0 2000 м
[Ac trans]
+18.2 +9.9 58 +20 +24 1020.1 986.5
03 21.08 СЗ 2 50 км 8/0 2000 м
[Ac trans Ci fib]
+22.5 +8.6 41 +24 +30 комфорт 1018.5 985.3
06 21.08 СЗ 3 50 км 5/0
[Ci fib]
+23.3 +7.2 35 +24 +28 комфорт 1016.9 983.9
09 21.08 СЗ 2 50 км 6/0
[Ci fib]
+20.6 +9.1 48 +23 +23 комфорт 1017.2 983.9 +24.2
12 21.08 З 1 н/о н/о +11.5 +9.3 86 +11 +11 1018.7 984.2
15 21.08 В 1 н/о н/о +7.2 +6.4 95 +6 +6 1019.1 984.1
18 21.08 В 1 н/о н/о +3.9 +3.3 96 +2 +2 1019.7 984.2
21 21.08 штиль 0 50 км 3/0 2000 м
[Ac trans]
+6.4 +5.3 93 +5 +6 1019.4 984.2 +2.1
00 22.08 штиль 0 50 км 3/0
[Ac trans]
+16.8 +8.9 60 +17 +23 1017.1 983.3
03 22.08 ЮЗ 2 50 км 3/0 2000 м
[Ac trans]
+22.4 +9.7 44 +24 +31 комфорт 1015.2 982.1
06 22.08 СЗ 3 50 км 3/0
[Ci fib]
+24.3 +8.2 36 +25 +29 комфорт 1013.5 980.7
09 22.08 СЗ 1 50 км 4/0
[Ci fib]
+22.9 +9.0 41 +24 +25 комфорт 1013.6 980.6 +24.4
12 22.08 СВ 1 н/о н/о +11.8 +10.3 91 +12 +12 1015.2 980.9
15 22.08 В 1 н/о н/о +10.2 +8.8 91 +10 +10 1016.1 981.5
18 22.08 ЮВ 1 н/о н/о +8.0 +7.3 95 +7 +7 1016.7 981.8
21 22.08 В 1 4000 м 6/0 2000 м
[Ac trans]
+8.1 +7.4 95 +7 +8 1016.9 982.1 +7.2
00 23.08 штиль 0 4000 м дым 6/0 2000 м
[Ac trans]
+16.4 +10.0 66 +16 +21 1015.7 981.9
03 23.08 СВ 3 4000 м дым 4/0 2000 м
[Ac trans]
+22.4 +9.9 45 +24 +29 комфорт 1013.6 980.6
06 23.08 СЗ 2 50 км 6/0
[Ac trans]
+24.1 +8.5 37 +25 +28 комфорт 1012.2 979.4
09 23.08 СЗ 1 50 км 4/0 2000 м
[Ac trans]
+22.1 +9.3 44 +24 +24 комфорт 1011.9 978.9 +24.5
12 23.08 Ю 3 н/о н/о +16.6 +10.1 65 +16 +16 1014.0 980.3
15 23.08 В 1 н/о н/о +12.9 +11.9 94 +13 +13 1014.6 980.5
18 23.08 СВ 1 н/о н/о +11.7 +11.0 95 +11 +11 1014.2 979.9
21 23.08 В 1 50 км слаб. ливневой дождь 10/4 1000 м
[Cb calv As op]
+11.8 +10.8 94 +12 +12 1014.4 980.1 +11.5 0.0
00 24.08 ЮВ 1 н/о н/о +14.9 +12.9 88 +15 +15 1013.9 980.0
03 24.08 ЮВ 2 н/о н/о +18.1 +12.2 68 +19 +19 1012.8 979.3
06 24.08 Ю 1 н/о н/о +19.9 +10.7 55 +22 +22 комфорт 1010.8 977.6
09 24.08 В 1 н/о н/о +18.2 +12.5 69 +20 +20 1010.5 977.1 +21.4
12 24.08 В 1 н/о н/о +14.4 +12.7 90 +15 +15 1010.5 976.7
15 24.08 Ю 1
{10}
н/о н/о +13.3 +12.4 94 +13 +13 1010.5 976.6

 

Местоположение метеостанции Теплый Ключ (Якутия, Россия): широта 62.78 долгота 136.80 высота над уровнем моря 289 м.

В архиве по умолчанию представлена погода в Теплом Ключе за последнюю неделю. Архивные данные за месяц целиком и за предыдущие месяцы, начиная с января 2011 года, Вы можете получить, выбрав интересующий диапазон дат из раскрывающегося списка и нажав кнопку "Ввод!".


*Определитесь, кто Вы:
робот инопланетянин человек

Внимание! Время в таблицах - всемирное. Для получения местного времени необходимо прибавить поправку, которая равна 9 ч.

Смотрите также архив погоды в соседних городах и на ближайших метеорологических станциях:

Погода в Охотском Перевозе (Якутия, Россия) (121 км)
Погода в Крест-Хальджае (Якутия, Россия) (122 км)
Погода в Томпо (Якутия, Россия) (139 км)
Погода в Восточной (Якутия, Россия) (150 км)
Погода в Ытык-Кюёле (Якутия, Россия) (175 км)
Погода в Чурапче (Якутия, Россия) (232 км)
Погода в Верхоянском Перевозе (Якутия, Россия) (249 км)
Погода в Агаякане (Якутия, Россия) (254 км)
Погода в Иэме (Якутия, Россия) (284 км)
Погода в Юртах (Якутия, Россия) (286 км)

Пояснения к столбцам:

Ветер - указаны скорость ветра в м/с - средняя за 10 мин, порывы в срок и между сроками (в фигурных скобках) и направление, откуда дует ветер: С - северный, СВ - северо-восточный, В - восточный, ЮВ - юго-восточный, Ю - южный, ЮЗ - юго-западный, З - западный, СЗ - северо-западный.
Видимость - горизонтальная дальность видимости в метрах или километрах. При видимости от 1 до 10 км при отсутствии осадков обычно наблюдается дымка, при ухудшении видимости до 1 км и менее - туман. В сухую погоду видимость может ухудшаться дымом, пылью или мглою.
Явления - указаны атмосферные явления, наблюдавшиеся в срок или в последний час перед сроком; фигурными скобками обозначены явления, наблюдавшиеся между сроками (за 1-3 часа до срока); квадратными скобками обозначены град или гололедные отложения с указанием их диаметра в мм.
Облачность - указаны через наклонную черту общая и нижняя облачность в баллах и высота нижней границы облаков в метрах; квадратными скобками обозначены формы облаков: Ci - перистые, Cs - перисто-слоистые, Cc - перисто-кучевые, Ac - высококучевые, As - высокослоистые, Sc - слоисто-кучевые, Ns - слоисто-дождевые, Cu - кучевые, Cb - кучево-дождевые. Подробнее классификацию облаков см. в Атласе облаков (PDF).
T - Температура воздуха - температура, измеренная на высоте 2 м над землей.
Td - Температура точки росы - температура, при понижении до которой содержащийся в воздухе водяной пар достигнет насыщения.
f - Относительная влажность воздуха - влажноcть воздуха, измеренная на высоте 2 м над землей.
Te - Эффективная температура - температура, которую ощущает одетый по сезону человек в тени. Характеристика душности погоды. При расчете учитывается влияние влажности воздуха и скорости ветра на теплоощущения человека.
Tes - Эффективная температура на солнце - температура, которую ощущает человек, с поправкой на солнечный нагрев. Характеристика знойности погоды. Зависит от высоты солнца над горизонтом, облачности и скорости ветра. Ночью, в пасмурную погоду, а также при ветре 12 м/с и более поправка равна нулю.
P - Атмосферное давление - приведенное к уровню моря атмосферное давление.
Po - Атмосферное давление - измеренное на уровне метеостанции атмосферное давление.
Tmin - Минимальная температура - минимум температуры воздуха на высоте 2 м над землей.
Tmax - Максимальная температура - максимум температуры воздуха на высоте 2 м над землей.
R - Количество осадков - Количество выпавших осадков за период времени, мм. При наведении курсора мыши на число - период времени, за который выпало указанное количество осадков.
R24 - Количество осадков - Количество выпавших осадков за 24 часа, мм.
S - Снежный покров - Высота снежного покрова, см. При наведении курсора мыши на число - состояние снежного покрова и степень покрытия местности в баллах.